Time,TemperatureF,DewpointF,PressureIn,WindDirection,WindDirectionDegrees,WindSpeedMPH,WindSpeedGustMPH,Humidity,HourlyPrecipIn,Conditions,Clouds,dailyrainin,SoftwareType,DateUTC
2013-01-07 00:00:00,30.7,27.8,30.01,North,0,0.0,0.0,89,0.00,,,0.00,Wunderground v.1.12,2013-01-07 07:00:00,
2013-01-07 00:05:00,30.8,27.9,30.01,North,0,0.0,0.0,89,0.00,,,0.00,Wunderground v.1.12,2013-01-07 07:05:00,
2013-01-07 00:10:00,30.5,27.6,30.01,North,0,0.0,0.0,89,0.00,,,0.00,Wunderground v.1.12,2013-01-07 07:10:00,
2013-01-07 00:15:00,30.7,27.8,30.01,North,0,0.0,0.0,89,0.00,,,0.00,Wunderground v.1.12,2013-01-07 07:15:00,
2013-01-07 00:20:00,30.6,27.5,30.00,North,0,0.0,0.0,88,0.00,,,0.00,Wunderground v.1.12,2013-01-07 07:20:00,
2013-01-07 00:25:00,30.9,27.8,30.00,North,0,0.0,0.0,88,0.00,,,0.00,Wunderground v.1.12,2013-01-07 07:25:00,
2013-01-07 00:30:00,30.7,27.6,30.00,North,0,0.0,0.0,88,0.00,,,0.00,Wunderground v.1.12,2013-01-07 07:30:00,
2013-01-07 00:35:00,30.8,27.7,29.99,N/A,-737280,0.0,0.0,88,0.00,,,0.00,Wunderground v.1.12,2013-01-07 07:35:00,
2013-01-07 00:40:00,30.9,27.8,30.00,North,0,0.0,0.0,88,0.00,,,0.00,Wunderground v.1.12,2013-01-07 07:40:00,
2013-01-07 00:45:00,31.0,27.9,30.00,North,0,0.0,0.0,88,0.00,,,0.00,Wunderground v.1.12,2013-01-07 07:45:00,
2013-01-07 00:50:00,31.2,28.1,30.00,North,0,0.0,0.0,88,0.00,,,0.00,Wunderground v.1.12,2013-01-07 07:50:00,
2013-01-07 00:55:00,31.0,27.9,30.00,North,0,0.0,0.0,88,0.00,,,0.00,Wunderground v.1.12,2013-01-07 07:55:00,
2013-01-07 01:05:00,30.9,27.8,29.99,N/A,-737280,0.0,0.0,88,0.00,,,0.00,Wunderground v.1.12,2013-01-07 08:05:00,
2013-01-07 01:10:00,30.9,27.8,30.00,North,0,0.0,0.0,88,0.00,,,0.00,Wunderground v.1.12,2013-01-07 08:10:00,
2013-01-07 01:15:00,30.5,27.6,30.00,North,0,0.0,0.0,89,0.00,,,0.00,Wunderground v.1.12,2013-01-07 08:15:00,
2013-01-07 01:20:00,30.5,27.6,30.00,North,0,0.0,0.0,89,0.00,,,0.00,Wunderground v.1.12,2013-01-07 08:20:00,
2013-01-07 01:25:00,30.3,27.4,30.00,North,0,0.0,0.0,89,0.00,,,0.00,Wunderground v.1.12,2013-01-07 08:25:00,
2013-01-07 01:35:00,30.6,27.7,29.99,N/A,-737280,0.0,0.0,89,0.00,,,0.00,Wunderground v.1.12,2013-01-07 08:35:00,
2013-01-07 01:40:00,30.6,27.7,30.00,North,0,0.0,0.0,89,0.00,,,0.00,Wunderground v.1.12,2013-01-07 08:40:00,
2013-01-07 01:45:00,30.5,27.6,30.00,North,0,0.0,0.0,89,0.00,,,0.00,Wunderground v.1.12,2013-01-07 08:45:00,
2013-01-07 01:55:00,30.5,27.6,30.00,North,0,0.0,0.0,89,0.00,,,0.00,Wunderground v.1.12,2013-01-07 08:55:00,
2013-01-07 02:00:00,30.5,27.6,30.00,North,0,0.0,0.0,89,0.00,,,0.00,Wunderground v.1.12,2013-01-07 09:00:00,
2013-01-07 02:10:00,30.6,28.0,30.00,North,0,0.0,0.0,90,0.00,,,0.00,Wunderground v.1.12,2013-01-07 09:10:00,
2013-01-07 02:15:00,30.4,27.8,30.00,North,0,0.0,0.0,90,0.00,,,0.00,Wunderground v.1.12,2013-01-07 09:15:00,
2013-01-07 02:20:00,30.6,28.0,30.00,North,0,0.0,0.0,90,0.00,,,0.00,Wunderground v.1.12,2013-01-07 09:20:00,
2013-01-07 02:25:00,30.3,28.0,30.00,North,0,0.0,0.0,91,0.00,,,0.00,Wunderground v.1.12,2013-01-07 09:25:00,
2013-01-07 02:30:00,30.3,27.7,30.00,North,0,0.0,0.0,90,0.00,,,0.00,Wunderground v.1.12,2013-01-07 09:30:00,
2013-01-07 02:35:00,30.4,28.1,29.99,N/A,-737280,0.0,0.0,91,0.00,,,0.00,Wunderground v.1.12,2013-01-07 09:35:00,
2013-01-07 02:40:00,30.1,27.8,30.00,North,0,0.0,0.0,91,0.00,,,0.00,Wunderground v.1.12,2013-01-07 09:40:00,
2013-01-07 02:45:00,30.2,27.6,30.01,North,0,0.0,0.0,90,0.00,,,0.00,Wunderground v.1.12,2013-01-07 09:45:00,
2013-01-07 02:50:00,30.3,28.0,30.01,North,0,0.0,0.0,91,0.00,,,0.00,Wunderground v.1.12,2013-01-07 09:50:00,
2013-01-07 02:55:00,30.5,28.2,30.01,North,0,0.0,0.0,91,0.00,,,0.00,Wunderground v.1.12,2013-01-07 09:55:00,
2013-01-07 03:00:00,30.5,28.2,30.01,North,0,0.0,0.0,91,0.00,,,0.00,Wunderground v.1.12,2013-01-07 10:00:00,
2013-01-07 03:05:00,30.2,27.9,30.01,North,0,0.0,0.0,91,0.00,,,0.00,Wunderground v.1.12,2013-01-07 10:05:00,
2013-01-07 03:10:00,30.4,28.1,30.01,North,0,0.0,0.0,91,0.00,,,0.00,Wunderground v.1.12,2013-01-07 10:10:00,
2013-01-07 03:15:00,30.3,28.0,30.01,North,0,0.0,0.0,91,0.00,,,0.00,Wunderground v.1.12,2013-01-07 10:15:00,
2013-01-07 03:20:00,30.2,28.2,30.01,North,0,0.0,0.0,92,0.00,,,0.00,Wunderground v.1.12,2013-01-07 10:20:00,
2013-01-07 03:25:00,30.2,27.9,30.01,North,0,0.0,0.0,91,0.00,,,0.00,Wunderground v.1.12,2013-01-07 10:25:00,
2013-01-07 03:30:00,30.5,28.2,30.01,North,0,0.0,0.0,91,0.00,,,0.00,Wunderground v.1.12,2013-01-07 10:30:00,
2013-01-07 03:35:00,30.4,28.1,30.01,North,0,0.0,0.0,91,0.00,,,0.00,Wunderground v.1.12,2013-01-07 10:35:00,
2013-01-07 03:45:00,30.3,28.5,30.01,North,0,0.0,0.0,93,0.00,,,0.00,Wunderground v.1.12,2013-01-07 10:45:00,
2013-01-07 03:50:00,30.4,28.9,30.01,WSW,241,0.0,0.0,94,0.00,,,0.00,Wunderground v.1.12,2013-01-07 10:50:00,
2013-01-07 03:55:00,30.1,28.8,30.01,North,0,0.0,0.0,95,0.00,,,0.00,Wunderground v.1.12,2013-01-07 10:55:00,
2013-01-07 04:00:00,30.1,28.8,30.00,North,0,0.0,0.0,95,0.00,,,0.00,Wunderground v.1.12,2013-01-07 11:00:00,
2013-01-07 04:05:00,30.3,29.0,30.00,North,0,0.0,0.0,95,0.00,,,0.00,Wunderground v.1.12,2013-01-07 11:05:00,
2013-01-07 04:10:00,30.3,29.0,30.00,North,0,0.0,0.0,95,0.00,,,0.00,Wunderground v.1.12,2013-01-07 11:10:00,
2013-01-07 04:20:00,30.5,29.5,30.00,North,0,0.0,0.0,96,0.00,,,0.00,Wunderground v.1.12,2013-01-07 11:20:00,
2013-01-07 04:25:00,30.5,29.5,30.00,North,0,0.0,0.0,96,0.00,,,0.00,Wunderground v.1.12,2013-01-07 11:25:00,
2013-01-07 04:30:00,30.3,29.3,30.00,North,0,0.0,0.0,96,0.00,,,0.00,Wunderground v.1.12,2013-01-07 11:30:00,
2013-01-07 04:35:00,30.2,29.2,30.00,North,0,0.0,0.0,96,0.00,,,0.00,Wunderground v.1.12,2013-01-07 11:35:00,
2013-01-07 04:40:00,30.3,29.6,30.00,North,0,0.0,0.0,97,0.00,,,0.00,Wunderground v.1.12,2013-01-07 11:40:00,
2013-01-07 04:45:00,30.3,29.6,30.00,North,0,0.0,0.0,97,0.00,,,0.00,Wunderground v.1.12,2013-01-07 11:45:00,
2013-01-07 04:50:00,30.6,30.1,30.00,North,0,0.0,0.0,98,0.00,,,0.00,Wunderground v.1.12,2013-01-07 11:50:00,
2013-01-07 04:55:00,30.2,29.7,30.00,North,0,0.0,0.0,98,0.00,,,0.00,Wunderground v.1.12,2013-01-07 11:55:00,
2013-01-07 05:00:00,30.6,30.1,30.00,North,0,0.0,0.0,98,0.00,,,0.00,Wunderground v.1.12,2013-01-07 12:00:00,
2013-01-07 05:05:00,30.6,30.1,30.00,North,0,0.0,0.0,98,0.00,,,0.00,Wunderground v.1.12,2013-01-07 12:05:00,
2013-01-07 05:10:00,30.5,30.0,30.00,North,0,0.0,0.0,98,0.00,,,0.00,Wunderground v.1.12,2013-01-07 12:10:00,
2013-01-07 05:20:00,30.5,30.0,30.00,North,0,0.0,0.0,98,0.00,,,0.00,Wunderground v.1.12,2013-01-07 12:20:00,
2013-01-07 05:25:00,30.4,30.2,30.00,North,0,0.0,0.0,99,0.00,,,0.00,Wunderground v.1.12,2013-01-07 12:25:00,
2013-01-07 05:30:00,30.6,30.1,29.99,North,0,0.0,0.0,98,0.00,,,0.00,Wunderground v.1.12,2013-01-07 12:30:00,
2013-01-07 05:40:00,30.3,30.1,29.99,SW,230,0.0,0.0,99,0.00,,,0.00,Wunderground v.1.12,2013-01-07 12:40:00,
2013-01-07 05:45:00,30.3,29.8,29.99,SW,230,0.0,0.0,98,0.00,,,0.00,Wunderground v.1.12,2013-01-07 12:45:00,
2013-01-07 05:50:00,30.3,30.1,29.99,SW,230,0.0,0.0,99,0.00,,,0.00,Wunderground v.1.12,2013-01-07 12:50:00,
2013-01-07 05:55:00,30.4,30.2,29.99,SW,231,0.0,0.0,99,0.00,,,0.00,Wunderground v.1.12,2013-01-07 12:55:00,
2013-01-07 06:05:00,30.4,30.2,29.99,SW,230,0.0,0.0,99,0.00,,,0.00,Wunderground v.1.12,2013-01-07 13:05:00,
2013-01-07 06:10:00,30.2,30.0,29.98,SW,230,0.0,0.0,99,0.00,,,0.00,Wunderground v.1.12,2013-01-07 13:10:00,
2013-01-07 06:15:00,30.4,30.2,29.98,SW,231,0.0,0.0,99,0.00,,,0.00,Wunderground v.1.12,2013-01-07 13:15:00,
2013-01-07 06:25:00,30.2,30.0,29.98,SW,230,0.0,0.0,99,0.00,,,0.00,Wunderground v.1.12,2013-01-07 13:25:00,
2013-01-07 06:35:00,30.3,29.8,29.98,SW,230,0.0,0.0,98,0.00,,,0.00,Wunderground v.1.12,2013-01-07 13:35:00,
2013-01-07 06:40:00,30.5,30.0,29.98,SW,230,0.0,0.0,98,0.00,,,0.00,Wunderground v.1.12,2013-01-07 13:40:00,
2013-01-07 06:45:00,30.2,29.5,29.98,SW,230,0.0,0.0,97,0.00,,,0.00,Wunderground v.1.12,2013-01-07 13:45:00,
2013-01-07 06:50:00,30.5,29.8,29.97,SW,230,0.0,0.0,97,0.00,,,0.00,Wunderground v.1.12,2013-01-07 13:50:00,
2013-01-07 06:55:00,30.4,29.7,29.97,SW,231,0.0,0.0,97,0.00,,,0.00,Wunderground v.1.12,2013-01-07 13:55:00,
2013-01-07 07:00:00,30.3,29.6,29.97,SW,230,0.0,0.0,97,0.00,,,0.00,Wunderground v.1.12,2013-01-07 14:00:00,
2013-01-07 07:05:00,30.4,29.7,29.97,SW,231,0.0,0.0,97,0.00,,,0.00,Wunderground v.1.12,2013-01-07 14:05:00,
2013-01-07 07:15:00,30.5,29.8,29.96,SW,230,0.0,0.0,97,0.00,,,0.00,Wunderground v.1.12,2013-01-07 14:15:00,
2013-01-07 07:25:00,30.1,29.4,29.96,SW,230,0.0,0.0,97,0.00,,,0.00,Wunderground v.1.12,2013-01-07 14:25:00,
2013-01-07 07:35:00,30.3,29.3,29.95,SW,230,0.0,0.0,96,0.00,,,0.00,Wunderground v.1.12,2013-01-07 14:35:00,
2013-01-07 07:40:00,30.2,29.5,29.95,SW,231,0.0,0.0,97,0.00,,,0.00,Wunderground v.1.12,2013-01-07 14:40:00,
2013-01-07 07:50:00,30.3,29.6,29.95,SW,230,0.0,0.0,97,0.00,,,0.00,Wunderground v.1.12,2013-01-07 14:50:00,
2013-01-07 07:55:00,30.2,29.5,29.95,SW,230,0.0,0.0,97,0.00,,,0.00,Wunderground v.1.12,2013-01-07 14:55:00,
2013-01-07 08:00:00,30.3,29.3,29.95,SW,230,0.0,0.0,96,0.00,,,0.00,Wunderground v.1.12,2013-01-07 15:00:00,
2013-01-07 08:05:00,30.4,29.7,29.94,SW,231,0.0,0.0,97,0.00,,,0.00,Wunderground v.1.12,2013-01-07 15:05:00,
2013-01-07 08:10:00,30.3,29.3,29.94,SW,231,0.0,0.0,96,0.00,,,0.00,Wunderground v.1.12,2013-01-07 15:10:00,
2013-01-07 08:15:00,30.2,29.5,29.94,SW,231,0.0,0.0,97,0.00,,,0.00,Wunderground v.1.12,2013-01-07 15:15:00,
2013-01-07 08:25:00,30.1,29.1,29.95,SW,230,0.0,0.0,96,0.00,,,0.00,Wunderground v.1.12,2013-01-07 15:25:00,
2013-01-07 08:30:00,30.0,29.0,29.95,SW,231,0.0,0.0,96,0.00,,,0.00,Wunderground v.1.12,2013-01-07 15:30:00,
2013-01-07 08:35:00,30.1,29.1,29.95,SW,231,0.0,0.0,96,0.00,,,0.00,Wunderground v.1.12,2013-01-07 15:35:00,
2013-01-07 08:40:00,30.3,29.6,29.95,SW,231,0.0,0.0,97,0.00,,,0.00,Wunderground v.1.12,2013-01-07 15:40:00,
2013-01-07 08:45:00,30.2,29.5,29.95,SW,230,0.0,0.0,97,0.00,,,0.00,Wunderground v.1.12,2013-01-07 15:45:00,
2013-01-07 08:50:00,30.1,29.1,29.95,SW,231,0.0,0.0,96,0.00,,,0.00,Wunderground v.1.12,2013-01-07 15:50:00,
2013-01-07 09:00:00,30.1,29.1,29.95,SW,230,0.0,0.0,96,0.00,,,0.00,Wunderground v.1.12,2013-01-07 16:00:00,
2013-01-07 09:05:00,30.1,29.1,29.94,SW,230,0.0,0.0,96,0.00,,,0.00,Wunderground v.1.12,2013-01-07 16:05:00,
2013-01-07 09:10:00,30.2,29.5,29.94,SW,231,0.0,0.0,97,0.00,,,0.00,Wunderground v.1.12,2013-01-07 16:10:00,
2013-01-07 09:15:00,30.4,29.4,29.94,SW,231,0.0,0.0,96,0.00,,,0.00,Wunderground v.1.12,2013-01-07 16:15:00,
2013-01-07 09:25:00,30.4,29.7,29.94,SW,231,0.0,0.0,97,0.00,,,0.00,Wunderground v.1.12,2013-01-07 16:25:00,
2013-01-07 09:30:00,30.2,29.5,29.94,SW,230,0.0,0.0,97,0.00,,,0.00,Wunderground v.1.12,2013-01-07 16:30:00,
2013-01-07 09:35:00,30.5,29.5,29.94,SW,230,0.0,0.0,96,0.00,,,0.00,Wunderground v.1.12,2013-01-07 16:35:00,
2013-01-07 09:40:00,30.6,29.9,29.93,SW,230,0.0,0.0,97,0.00,,,0.00,Wunderground v.1.12,2013-01-07 16:40:00,
2013-01-07 09:45:00,30.7,30.0,29.94,SW,230,0.0,0.0,97,0.00,,,0.00,Wunderground v.1.12,2013-01-07 16:45:00,
2013-01-07 09:50:00,30.6,29.9,29.94,SW,231,0.0,0.0,97,0.00,,,0.00,Wunderground v.1.12,2013-01-07 16:50:00,
2013-01-07 09:55:00,30.7,30.0,29.93,SW,231,0.0,0.0,97,0.00,,,0.00,Wunderground v.1.12,2013-01-07 16:55:00,
2013-01-07 10:05:00,30.8,30.0,29.93,SW,231,0.0,0.0,97,0.00,,,0.00,Wunderground v.1.12,2013-01-07 17:05:00,
2013-01-07 10:10:00,31.0,30.2,29.93,SW,230,0.0,0.0,97,0.00,,,0.00,Wunderground v.1.12,2013-01-07 17:10:00,
2013-01-07 10:15:00,30.8,30.0,29.93,SW,231,0.0,0.0,97,0.00,,,0.00,Wunderground v.1.12,2013-01-07 17:15:00,
2013-01-07 10:20:00,30.8,30.0,29.92,SW,231,0.0,0.0,97,0.00,,,0.00,Wunderground v.1.12,2013-01-07 17:20:00,
2013-01-07 10:25:00,31.1,30.3,29.92,SW,231,0.0,0.0,97,0.00,,,0.00,Wunderground v.1.12,2013-01-07 17:25:00,
2013-01-07 10:35:00,31.2,30.2,29.92,SW,231,0.0,0.0,96,0.00,,,0.00,Wunderground v.1.12,2013-01-07 17:35:00,
2013-01-07 10:40:00,31.1,30.3,29.92,SW,230,0.0,0.0,97,0.00,,,0.00,Wunderground v.1.12,2013-01-07 17:40:00,
2013-01-07 10:45:00,31.0,30.2,29.91,SW,230,0.0,0.0,97,0.00,,,0.00,Wunderground v.1.12,2013-01-07 17:45:00,
2013-01-07 10:50:00,31.0,30.2,29.91,SW,231,0.0,0.0,97,0.00,,,0.00,Wunderground v.1.12,2013-01-07 17:50:00,
2013-01-07 10:55:00,31.1,30.3,29.91,SW,231,0.0,0.0,97,0.00,,,0.00,Wunderground v.1.12,2013-01-07 17:55:00,
2013-01-07 11:05:00,31.2,30.4,29.91,SW,230,0.0,0.0,97,0.00,,,0.00,Wunderground v.1.12,2013-01-07 18:05:00,
2013-01-07 11:10:00,31.2,30.4,29.91,SW,230,0.0,0.0,97,0.00,,,0.00,Wunderground v.1.12,2013-01-07 18:10:00,
2013-01-07 11:15:00,31.4,30.6,29.90,SW,231,0.0,0.0,97,0.00,,,0.00,Wunderground v.1.12,2013-01-07 18:15:00,
2013-01-07 11:20:00,31.3,30.5,29.90,SW,231,0.0,0.0,97,0.00,,,0.00,Wunderground v.1.12,2013-01-07 18:20:00,
2013-01-07 11:25:00,31.4,30.6,29.90,SW,230,0.0,0.0,97,0.00,,,0.00,Wunderground v.1.12,2013-01-07 18:25:00,
2013-01-07 11:30:00,31.8,31.0,29.90,SW,231,0.0,0.0,97,0.00,,,0.00,Wunderground v.1.12,2013-01-07 18:30:00,
2013-01-07 11:40:00,31.8,31.0,29.89,SW,230,0.0,0.0,97,0.00,,,0.00,Wunderground v.1.12,2013-01-07 18:40:00,
2013-01-07 11:45:00,31.7,30.9,29.89,SW,230,0.0,0.0,97,0.00,,,0.00,Wunderground v.1.12,2013-01-07 18:45:00,
2013-01-07 11:50:00,32.0,31.5,29.89,SW,230,0.0,0.0,98,0.00,,,0.00,Wunderground v.1.12,2013-01-07 18:50:00,
2013-01-07 11:55:00,31.7,30.9,29.89,North,0,0.0,0.0,97,0.00,,,0.00,Wunderground v.1.12,2013-01-07 18:55:00,
2013-01-07 12:00:00,32.0,31.2,29.88,North,0,0.0,0.0,97,0.00,,,0.00,Wunderground v.1.12,2013-01-07 19:00:00,
2013-01-07 12:10:00,32.3,31.3,29.88,North,0,0.0,0.0,96,0.00,,,0.00,Wunderground v.1.12,2013-01-07 19:10:00,
2013-01-07 12:15:00,32.4,31.4,29.88,North,0,0.0,0.0,96,0.00,,,0.00,Wunderground v.1.12,2013-01-07 19:15:00,
2013-01-07 12:20:00,32.0,31.0,29.88,North,0,0.0,0.0,96,0.00,,,0.00,Wunderground v.1.12,2013-01-07 19:20:00,
2013-01-07 12:25:00,32.1,31.1,29.88,North,0,0.0,0.0,96,0.00,,,0.00,Wunderground v.1.12,2013-01-07 19:25:00,
2013-01-07 12:30:00,32.2,31.2,29.87,North,0,0.0,0.0,96,0.00,,,0.00,Wunderground v.1.12,2013-01-07 19:30:00,
2013-01-07 12:35:00,32.8,31.8,29.86,North,0,0.0,0.0,96,0.00,,,0.00,Wunderground v.1.12,2013-01-07 19:35:00,
2013-01-07 12:40:00,32.7,31.7,29.86,North,0,0.0,0.0,96,0.00,,,0.00,Wunderground v.1.12,2013-01-07 19:40:00,
2013-01-07 12:50:00,32.4,31.4,29.86,WSW,250,0.0,0.0,96,0.00,,,0.00,Wunderground v.1.12,2013-01-07 19:50:00,
2013-01-07 12:55:00,32.2,31.2,29.85,North,0,0.0,0.0,96,0.00,,,0.00,Wunderground v.1.12,2013-01-07 19:55:00,
2013-01-07 13:00:00,32.2,31.4,29.85,North,0,0.0,0.0,97,0.00,,,0.00,Wunderground v.1.12,2013-01-07 20:00:00,
2013-01-07 13:05:00,32.6,31.8,29.84,North,0,0.0,0.0,97,0.00,,,0.00,Wunderground v.1.12,2013-01-07 20:05:00,
2013-01-07 13:15:00,32.3,31.5,29.84,North,0,0.0,0.0,97,0.00,,,0.00,Wunderground v.1.12,2013-01-07 20:15:00,
2013-01-07 13:20:00,32.6,31.8,29.84,North,352,0.0,0.0,97,0.00,,,0.00,Wunderground v.1.12,2013-01-07 20:20:00,
2013-01-07 13:25:00,32.3,31.8,29.83,North,0,0.0,0.0,98,0.00,,,0.00,Wunderground v.1.12,2013-01-07 20:25:00,
2013-01-07 13:30:00,32.3,31.8,29.83,WSW,254,0.0,0.0,98,0.00,,,0.00,Wunderground v.1.12,2013-01-07 20:30:00,
2013-01-07 13:35:00,32.2,31.7,29.83,WSW,254,0.0,0.0,98,0.00,,,0.00,Wunderground v.1.12,2013-01-07 20:35:00,
2013-01-07 13:45:00,32.1,31.9,29.83,WSW,254,0.0,0.0,99,0.00,,,0.00,Wunderground v.1.12,2013-01-07 20:45:00,
2013-01-07 13:50:00,32.3,32.1,29.83,WSW,254,0.0,0.0,99,0.00,,,0.00,Wunderground v.1.12,2013-01-07 20:50:00,
2013-01-07 13:55:00,32.1,31.9,29.82,WSW,254,0.0,0.0,99,0.00,,,0.00,Wunderground v.1.12,2013-01-07 20:55:00,
2013-01-07 14:00:00,32.0,31.8,29.82,WSW,254,0.0,0.0,99,0.00,,,0.00,Wunderground v.1.12,2013-01-07 21:00:00,
2013-01-07 14:05:00,32.2,32.0,29.82,WSW,254,0.0,0.0,99,0.00,,,0.00,Wunderground v.1.12,2013-01-07 21:05:00,
2013-01-07 14:15:00,32.3,32.3,29.82,SW,230,0.0,0.0,100,0.00,,,0.00,Wunderground v.1.12,2013-01-07 21:15:00,
2013-01-07 14:20:00,32.5,32.5,29.82,SW,229,0.0,0.0,100,0.00,,,0.00,Wunderground v.1.12,2013-01-07 21:20:00,
2013-01-07 14:25:00,32.1,32.1,29.82,SW,230,0.0,0.0,100,0.00,,,0.00,Wunderground v.1.12,2013-01-07 21:25:00,
2013-01-07 14:30:00,32.2,32.2,29.82,SW,230,0.0,0.0,100,0.00,,,0.00,Wunderground v.1.12,2013-01-07 21:30:00,
2013-01-07 14:35:00,32.3,32.3,29.81,SW,230,0.0,0.0,100,0.00,,,0.00,Wunderground v.1.12,2013-01-07 21:35:00,
2013-01-07 14:40:00,32.5,32.5,29.81,SW,230,0.0,0.0,100,0.00,,,0.00,Wunderground v.1.12,2013-01-07 21:40:00,
2013-01-07 14:50:00,32.5,32.5,29.81,SW,230,0.0,0.0,100,0.00,,,0.00,Wunderground v.1.12,2013-01-07 21:50:00,
2013-01-07 14:55:00,32.2,32.2,29.81,SW,230,0.0,0.0,100,0.00,,,0.00,Wunderground v.1.12,2013-01-07 21:55:00,
2013-01-07 15:00:00,32.2,32.2,29.81,SW,230,0.0,0.0,100,0.00,,,0.00,Wunderground v.1.12,2013-01-07 22:00:00,
2013-01-07 15:05:00,32.5,32.5,29.81,SW,230,0.0,0.0,100,0.00,,,0.00,Wunderground v.1.12,2013-01-07 22:05:00,
2013-01-07 15:10:00,32.5,32.5,29.81,SW,229,0.0,0.0,100,0.00,,,0.00,Wunderground v.1.12,2013-01-07 22:10:00,
2013-01-07 15:20:00,32.4,32.4,29.81,SW,230,0.0,0.0,100,0.00,,,0.00,Wunderground v.1.12,2013-01-07 22:20:00,
2013-01-07 15:25:00,32.7,32.5,29.81,SW,230,0.0,0.0,99,0.00,,,0.00,Wunderground v.1.12,2013-01-07 22:25:00,
2013-01-07 15:30:00,32.4,32.4,29.81,SW,230,0.0,0.0,100,0.00,,,0.00,Wunderground v.1.12,2013-01-07 22:30:00,
2013-01-07 15:35:00,32.6,32.6,29.80,SW,230,0.0,0.0,100,0.00,,,0.00,Wunderground v.1.12,2013-01-07 22:35:00,
2013-01-07 15:40:00,32.6,32.6,29.81,SSE,167,0.0,0.0,100,0.00,,,0.00,Wunderground v.1.12,2013-01-07 22:40:00,
2013-01-07 15:45:00,32.6,32.4,29.81,South,176,0.0,0.0,99,0.00,,,0.00,Wunderground v.1.12,2013-01-07 22:45:00,
2013-01-07 15:55:00,32.3,32.1,29.80,South,174,0.0,0.0,99,0.00,,,0.00,Wunderground v.1.12,2013-01-07 22:55:00,
2013-01-07 16:00:00,32.6,32.4,29.81,South,177,0.0,0.0,99,0.00,,,0.00,Wunderground v.1.12,2013-01-07 23:00:00,
2013-01-07 16:05:00,32.6,32.4,29.80,South,177,0.0,0.0,99,0.00,,,0.00,Wunderground v.1.12,2013-01-07 23:05:00,
2013-01-07 16:10:00,32.5,32.5,29.80,South,177,0.0,0.0,100,0.00,,,0.00,Wunderground v.1.12,2013-01-07 23:10:00,
2013-01-07 16:15:00,32.7,32.7,29.81,South,177,0.0,0.0,100,0.00,,,0.00,Wunderground v.1.12,2013-01-07 23:15:00,
2013-01-07 16:20:00,32.5,32.5,29.80,South,177,0.0,0.0,100,0.00,,,0.00,Wunderground v.1.12,2013-01-07 23:20:00,
2013-01-07 16:25:00,32.4,32.4,29.81,South,177,0.0,0.0,100,0.00,,,0.00,Wunderground v.1.12,2013-01-07 23:25:00,
2013-01-07 16:30:00,32.4,32.4,29.80,South,177,0.0,0.0,100,0.00,,,0.00,Wunderground v.1.12,2013-01-07 23:30:00,
2013-01-07 16:35:00,32.5,32.5,29.80,South,177,0.0,0.0,100,0.00,,,0.00,Wunderground v.1.12,2013-01-07 23:35:00,
2013-01-07 16:40:00,32.4,32.4,29.80,South,177,0.0,0.0,100,0.00,,,0.00,Wunderground v.1.12,2013-01-07 23:40:00,
2013-01-07 16:45:00,32.3,32.3,29.80,South,177,0.0,0.0,100,0.00,,,0.00,Wunderground v.1.12,2013-01-07 23:45:00,
2013-01-07 16:55:00,32.2,32.2,29.79,South,177,0.0,0.0,100,0.00,,,0.00,Wunderground v.1.12,2013-01-07 23:55:00,
2013-01-07 17:00:00,32.3,32.3,29.79,South,177,0.0,0.0,100,0.00,,,0.00,Wunderground v.1.12,2013-01-08 00:00:00,
2013-01-07 17:05:00,32.4,32.4,29.79,South,177,0.0,0.0,100,0.00,,,0.00,Wunderground v.1.12,2013-01-08 00:05:00,
2013-01-07 17:10:00,31.9,31.9,29.78,North,0,0.0,0.0,100,0.00,,,0.00,Wunderground v.1.12,2013-01-08 00:10:00,
2013-01-07 17:15:00,32.2,32.2,29.78,North,0,0.0,0.0,100,0.00,,,0.00,Wunderground v.1.12,2013-01-08 00:15:00,
2013-01-07 17:20:00,32.1,31.9,29.78,North,0,0.0,0.0,99,0.00,,,0.00,Wunderground v.1.12,2013-01-08 00:20:00,
2013-01-07 17:30:00,32.6,32.4,29.77,North,0,0.0,0.0,99,0.00,,,0.00,Wunderground v.1.12,2013-01-08 00:30:00,
2013-01-07 17:35:00,32.5,32.5,29.77,North,0,0.0,0.0,100,0.00,,,0.00,Wunderground v.1.12,2013-01-08 00:35:00,
2013-01-07 17:40:00,32.4,32.4,29.77,North,0,0.0,0.0,100,0.00,,,0.00,Wunderground v.1.12,2013-01-08 00:40:00,
2013-01-07 17:50:00,32.9,32.9,29.77,North,0,3.0,3.0,100,0.00,,,0.00,Wunderground v.1.12,2013-01-08 00:50:00,
2013-01-07 18:00:00,32.6,32.6,29.76,North,0,0.0,0.0,100,0.00,,,0.00,Wunderground v.1.12,2013-01-08 01:00:00,
2013-01-07 18:05:00,33.1,32.9,29.77,North,358,6.0,6.0,99,0.00,,,0.00,Wunderground v.1.12,2013-01-08 01:05:00,
2013-01-07 18:10:00,33.2,33.2,29.77,North,0,0.0,0.0,100,0.00,,,0.00,Wunderground v.1.12,2013-01-08 01:10:00,
2013-01-07 18:15:00,32.7,32.5,29.77,North,0,0.0,0.0,99,0.00,,,0.00,Wunderground v.1.12,2013-01-08 01:15:00,
2013-01-07 18:20:00,32.8,32.6,29.77,North,0,0.0,0.0,99,0.00,,,0.00,Wunderground v.1.12,2013-01-08 01:20:00,
2013-01-07 18:30:00,33.3,33.3,29.77,North,0,0.0,0.0,100,0.00,,,0.00,Wunderground v.1.12,2013-01-08 01:30:00,
2013-01-07 18:35:00,33.0,33.0,29.78,North,0,0.0,0.0,100,0.00,,,0.00,Wunderground v.1.12,2013-01-08 01:35:00,
2013-01-07 18:40:00,32.8,32.6,29.78,North,0,0.0,0.0,99,0.00,,,0.00,Wunderground v.1.12,2013-01-08 01:40:00,
2013-01-07 18:45:00,33.4,33.1,29.78,North,0,0.0,0.0,99,0.00,,,0.00,Wunderground v.1.12,2013-01-08 01:45:00,
2013-01-07 18:50:00,33.4,33.4,29.78,North,0,0.0,0.0,100,0.00,,,0.00,Wunderground v.1.12,2013-01-08 01:50:00,
2013-01-07 18:55:00,33.4,33.4,29.78,North,0,0.0,0.0,100,0.00,,,0.00,Wunderground v.1.12,2013-01-08 01:55:00,
2013-01-07 19:05:00,33.4,33.4,29.77,North,0,0.0,0.0,100,0.00,,,0.00,Wunderground v.1.12,2013-01-08 02:05:00,
2013-01-07 19:10:00,33.2,33.2,29.77,North,0,0.0,0.0,100,0.00,,,0.00,Wunderground v.1.12,2013-01-08 02:10:00,
2013-01-07 19:15:00,33.4,33.4,29.77,North,0,0.0,0.0,100,0.00,,,0.00,Wunderground v.1.12,2013-01-08 02:15:00,
2013-01-07 19:20:00,33.5,33.5,29.77,North,0,0.0,0.0,100,0.00,,,0.00,Wunderground v.1.12,2013-01-08 02:20:00,
2013-01-07 19:25:00,33.6,33.6,29.77,North,0,0.0,0.0,100,0.00,,,0.00,Wunderground v.1.12,2013-01-08 02:25:00,
2013-01-07 19:35:00,33.6,33.6,29.76,North,0,0.0,0.0,100,0.00,,,0.00,Wunderground v.1.12,2013-01-08 02:35:00,
2013-01-07 19:40:00,33.7,33.7,29.77,North,0,0.0,0.0,100,0.00,,,0.00,Wunderground v.1.12,2013-01-08 02:40:00,
2013-01-07 19:45:00,33.4,33.4,29.77,North,0,0.0,0.0,100,0.00,,,0.00,Wunderground v.1.12,2013-01-08 02:45:00,
2013-01-07 19:50:00,33.5,33.5,29.77,NW,324,1.0,1.0,100,0.00,,,0.00,Wunderground v.1.12,2013-01-08 02:50:00,
2013-01-07 19:55:00,33.4,33.4,29.77,North,0,0.0,0.0,100,0.00,,,0.00,Wunderground v.1.12,2013-01-08 02:55:00,
2013-01-07 20:05:00,33.7,33.7,29.77,North,0,0.0,0.0,100,0.00,,,0.00,Wunderground v.1.12,2013-01-08 03:05:00,
2013-01-07 20:10:00,33.5,33.5,29.77,WSW,244,0.0,0.0,100,0.00,,,0.00,Wunderground v.1.12,2013-01-08 03:10:00,
2013-01-07 20:15:00,33.5,33.5,29.76,North,0,0.0,0.0,100,0.00,,,0.00,Wunderground v.1.12,2013-01-08 03:15:00,
2013-01-07 20:25:00,33.5,33.5,29.77,WSW,248,0.0,0.0,100,0.00,,,0.00,Wunderground v.1.12,2013-01-08 03:25:00,
2013-01-07 20:30:00,33.2,33.2,29.76,WSW,248,0.0,0.0,100,0.00,,,0.00,Wunderground v.1.12,2013-01-08 03:30:00,
2013-01-07 20:40:00,33.7,33.7,29.77,WSW,248,0.0,0.0,100,0.00,,,0.00,Wunderground v.1.12,2013-01-08 03:40:00,
2013-01-07 20:45:00,33.2,33.2,29.77,WSW,247,0.0,0.0,100,0.00,,,0.00,Wunderground v.1.12,2013-01-08 03:45:00,
2013-01-07 20:50:00,33.6,33.6,29.77,WSW,248,0.0,0.0,100,0.00,,,0.00,Wunderground v.1.12,2013-01-08 03:50:00,
2013-01-07 20:55:00,33.3,33.3,29.77,WSW,248,0.0,0.0,100,0.00,,,0.00,Wunderground v.1.12,2013-01-08 03:55:00,
2013-01-07 21:05:00,33.9,33.9,29.77,North,0,0.0,0.0,100,0.00,,,0.00,Wunderground v.1.12,2013-01-08 04:05:00,
2013-01-07 21:10:00,33.6,33.6,29.77,North,0,0.0,0.0,100,0.00,,,0.00,Wunderground v.1.12,2013-01-08 04:10:00,
2013-01-07 21:15:00,33.6,33.6,29.77,NNW,347,0.0,0.0,100,0.00,,,0.00,Wunderground v.1.12,2013-01-08 04:15:00,
2013-01-07 21:20:00,33.9,33.9,29.77,North,353,0.0,0.0,100,0.00,,,0.00,Wunderground v.1.12,2013-01-08 04:20:00,
2013-01-07 21:25:00,33.9,33.9,29.77,ENE,78,0.0,0.0,100,0.00,,,0.00,Wunderground v.1.12,2013-01-08 04:25:00,
2013-01-07 21:30:00,33.7,33.7,29.77,NE,39,0.0,0.0,100,0.00,,,0.00,Wunderground v.1.12,2013-01-08 04:30:00,
2013-01-07 21:40:00,33.7,33.7,29.77,North,355,0.0,0.0,100,0.00,,,0.00,Wunderground v.1.12,2013-01-08 04:40:00,
2013-01-07 21:50:00,33.7,33.7,29.77,NE,44,0.0,0.0,100,0.00,,,0.00,Wunderground v.1.12,2013-01-08 04:50:00,
2013-01-07 21:55:00,34.0,34.0,29.77,North,352,0.0,0.0,100,0.00,,,0.00,Wunderground v.1.12,2013-01-08 04:55:00,
2013-01-07 22:05:00,33.5,33.5,29.77,North,353,0.0,0.0,100,0.00,,,0.00,Wunderground v.1.12,2013-01-08 05:05:00,
2013-01-07 22:10:00,33.7,33.7,29.77,North,354,0.0,0.0,100,0.00,,,0.00,Wunderground v.1.12,2013-01-08 05:10:00,
2013-01-07 22:15:00,34.4,34.4,29.77,North,357,0.0,0.0,100,0.00,,,0.00,Wunderground v.1.12,2013-01-08 05:15:00,
2013-01-07 22:20:00,34.1,34.1,29.77,North,355,0.0,0.0,100,0.00,,,0.00,Wunderground v.1.12,2013-01-08 05:20:00,
2013-01-07 22:25:00,34.2,34.2,29.77,North,357,1.0,1.0,100,0.00,,,0.00,Wunderground v.1.12,2013-01-08 05:25:00,
2013-01-07 22:30:00,34.4,34.4,29.77,North,356,0.0,0.0,100,0.00,,,0.00,Wunderground v.1.12,2013-01-08 05:30:00,
2013-01-07 22:35:00,34.9,34.9,29.78,North,356,4.0,4.0,100,0.00,,,0.00,Wunderground v.1.12,2013-01-08 05:35:00,
2013-01-07 22:40:00,34.5,34.5,29.78,North,357,0.0,0.0,100,0.00,,,0.00,Wunderground v.1.12,2013-01-08 05:40:00,
2013-01-07 22:45:00,34.9,34.9,29.78,North,353,0.0,0.0,100,0.00,,,0.00,Wunderground v.1.12,2013-01-08 05:45:00,
2013-01-07 22:50:00,34.7,34.7,29.78,NNW,335,0.0,0.0,100,0.00,,,0.00,Wunderground v.1.12,2013-01-08 05:50:00,
2013-01-07 22:55:00,34.7,34.7,29.78,NNW,341,0.0,0.0,100,0.00,,,0.00,Wunderground v.1.12,2013-01-08 05:55:00,
2013-01-07 23:00:00,34.6,34.6,29.78,NNW,327,0.0,0.0,100,0.00,,,0.00,Wunderground v.1.12,2013-01-08 06:00:00,
2013-01-07 23:05:00,34.6,34.6,29.78,NNW,348,0.0,0.0,100,0.00,,,0.00,Wunderground v.1.12,2013-01-08 06:05:00,
2013-01-07 23:10:00,34.6,34.6,29.79,North,350,0.0,0.0,100,0.00,,,0.00,Wunderground v.1.12,2013-01-08 06:10:00,
2013-01-07 23:20:00,34.7,34.7,29.80,NNW,335,0.0,0.0,100,0.00,,,0.00,Wunderground v.1.12,2013-01-08 06:20:00,
2013-01-07 23:25:00,34.8,34.8,29.79,NNE,12,0.0,0.0,100,0.00,,,0.00,Wunderground v.1.12,2013-01-08 06:25:00,
2013-01-07 23:30:00,34.7,34.7,29.80,NW,321,0.0,0.0,100,0.00,,,0.00,Wunderground v.1.12,2013-01-08 06:30:00,
2013-01-07 23:35:00,34.7,34.7,29.79,NE,35,0.0,0.0,100,0.00,,,0.00,Wunderground v.1.12,2013-01-08 06:35:00,
2013-01-07 23:40:00,34.6,34.6,29.79,NNW,328,1.0,1.0,100,0.00,,,0.00,Wunderground v.1.12,2013-01-08 06:40:00,
2013-01-07 23:50:00,35.0,35.0,29.79,NW,319,1.0,1.0,100,0.00,,,0.00,Wunderground v.1.12,2013-01-08 06:50:00,
2013-01-07 23:55:00,35.1,35.1,29.80,NW,309,0.0,0.0,100,0.00,,,0.00,Wunderground v.1.12,2013-01-08 06:55:00,